| time (UTC) | temp F | wind direction | speed MPH | gust MPH | rain 1hr in | rain 24hr in | rain mn in | humidity % | barometer mb |
| 20260504050650 | 42 | 54 | 1.0 | 1.0 | 0.00 | 0.00 | 0.00 | 81 | 1017.2 |
| 20260504045857 | 42 | 54 | 1.0 | 1.0 | 0.00 | 0.00 | 0.00 | 81 | 1017.1 |
| 20260504045356 | 42 | 54 | 1.0 | 1.0 | 0.00 | 0.00 | 0.00 | 81 | 1017.1 |
| 20260504044858 | 42 | 69 | 1.0 | 1.0 | 0.00 | 0.00 | 0.00 | 81 | 1017.1 |
| 20260504044356 | 42 | 54 | 1.0 | 1.0 | 0.00 | 0.00 | 0.00 | 81 | 1017.1 |
| 20260504044151 | 42 | 326 | 1.0 | 1.0 | 0.00 | 0.00 | 0.00 | 81 | 1017.2 |
| 20260504043357 | 42 | 73 | 1.0 | 1.0 | 0.00 | 0.00 | 0.00 | 80 | 1017.1 |
| 20260504042858 | 42 | 54 | 1.0 | 3.0 | 0.00 | 0.00 | 0.00 | 80 | 1017.0 |
| 20260504042357 | 42 | 279 | 1.0 | 3.0 | 0.00 | 0.00 | 0.00 | 80 | 1017.1 |
| 20260504042152 | 43 | 54 | 1.0 | 1.0 | 0.00 | 0.00 | 0.00 | 79 | 1017.0 |
| 20260504041654 | 43 | 82 | 1.0 | 1.0 | 0.00 | 0.00 | 0.00 | 79 | 1017.0 |
| 20260504040857 | 43 | 54 | 1.0 | 3.0 | 0.00 | 0.00 | 0.00 | 79 | 1017.0 |
| 20260504040356 | 43 | 54 | 1.0 | 3.0 | 0.00 | 0.00 | 0.00 | 79 | 1017.0 |
| 20260504035852 | 43 | 11 | 1.0 | 1.0 | 0.00 | 0.00 | 0.00 | 78 | 1017.0 |
| 20260504035649 | 43 | 54 | 0.0 | 1.0 | 0.00 | 0.00 | 0.00 | 78 | 1017.1 |
| 20260504034851 | 44 | 54 | 1.0 | 3.0 | 0.00 | 0.00 | 0.00 | 78 | 1017.2 |
| 20260504034353 | 44 | 54 | 1.0 | 3.0 | 0.00 | 0.00 | 0.00 | 78 | 1017.1 |
| 20260504033850 | 44 | 54 | 1.0 | 1.0 | 0.00 | 0.00 | 0.00 | 77 | 1017.3 |
| 20260504033351 | 44 | 73 | 1.0 | 3.0 | 0.00 | 0.00 | 0.00 | 76 | 1017.1 |
| 20260504032853 | 44 | 89 | 1.0 | 3.0 | 0.00 | 0.00 | 0.00 | 76 | 1017.0 |
| 20260504032351 | 44 | 82 | 1.0 | 1.0 | 0.00 | 0.00 | 0.00 | 76 | 1017.0 |
| 20260504031849 | 45 | 28 | 1.0 | 1.0 | 0.00 | 0.00 | 0.00 | 75 | 1016.8 |
| 20260504031347 | 45 | 110 | 1.0 | 3.0 | 0.00 | 0.00 | 0.00 | 75 | 1016.9 |
| 20260504030847 | 45 | 117 | 1.0 | 3.0 | 0.00 | 0.00 | 0.00 | 74 | 1016.9 |
| 20260504030345 | 45 | 117 | 1.0 | 1.0 | 0.00 | 0.00 | 0.00 | 74 | 1016.9 |
| 20260504025845 | 45 | 54 | 1.0 | 3.0 | 0.00 | 0.00 | 0.00 | 73 | 1016.8 |
| 20260504025343 | 45 | 54 | 1.0 | 3.0 | 0.00 | 0.00 | 0.00 | 72 | 1016.9 |
| 20260504024844 | 46 | 89 | 1.0 | 1.0 | 0.00 | 0.00 | 0.00 | 72 | 1016.8 |
| 20260504024343 | 46 | 82 | 0.0 | 1.0 | 0.00 | 0.00 | 0.00 | 71 | 1016.7 |
| 20260504023844 | 46 | 73 | 1.0 | 1.0 | 0.00 | 0.00 | 0.00 | 70 | 1016.7 |
| 20260504023338 | 46 | 100 | 1.0 | 3.0 | 0.00 | 0.00 | 0.00 | 69 | 1016.8 |
| 20260504023129 | 46 | 54 | 1.0 | 3.0 | 0.00 | 0.00 | 0.00 | 68 | 1016.7 |
| 20260504022331 | 46 | 89 | 0.0 | 1.0 | 0.00 | 0.00 | 0.00 | 67 | 1016.7 |
| 20260504022123 | 47 | 73 | 0.0 | 1.0 | 0.00 | 0.00 | 0.00 | 67 | 1016.6 |
| 20260504021621 | 47 | 54 | 0.0 | 1.0 | 0.00 | 0.00 | 0.00 | 67 | 1016.6 |
| 20260504020830 | 47 | 54 | 0.0 | 3.0 | 0.00 | 0.00 | 0.00 | 66 | 1016.6 |
| 20260504020333 | 47 | 54 | 1.0 | 3.0 | 0.00 | 0.00 | 0.00 | 66 | 1016.6 |
| 20260504020123 | 48 | 143 | 1.0 | 3.0 | 0.00 | 0.00 | 0.00 | 64 | 1016.6 |
| 20260504015623 | 48 | 54 | 1.0 | 3.0 | 0.00 | 0.00 | 0.00 | 63 | 1016.5 |
| 20260504014830 | 48 | 326 | 1.0 | 3.0 | 0.00 | 0.00 | 0.00 | 63 | 1016.5 |
| 20260504014330 | 48 | 73 | 1.0 | 3.0 | 0.00 | 0.00 | 0.00 | 64 | 1016.4 |
| 20260504014126 | 49 | 345 | 1.0 | 3.0 | 0.00 | 0.00 | 0.00 | 62 | 1016.3 |
| 20260504013632 | 49 | 134 | 1.0 | 3.0 | 0.00 | 0.00 | 0.00 | 61 | 1016.3 |
| 20260504012830 | 49 | 117 | 1.0 | 3.0 | 0.00 | 0.00 | 0.00 | 60 | 1016.3 |
| 20260504012332 | 50 | 117 | 1.0 | 3.0 | 0.00 | 0.00 | 0.00 | 59 | 1016.2 |
| 20260504011830 | 50 | 100 | 1.0 | 3.0 | 0.00 | 0.00 | 0.00 | 58 | 1016.1 |
| 20260504011331 | 50 | 100 | 1.0 | 3.0 | 0.00 | 0.00 | 0.00 | 57 | 1016.1 |
| 20260504010830 | 51 | 28 | 1.0 | 3.0 | 0.00 | 0.00 | 0.00 | 58 | 1016.1 |
| 20260504010331 | 51 | 28 | 1.0 | 3.0 | 0.00 | 0.00 | 0.00 | 58 | 1016.0 |
| 20260504005825 | 51 | 100 | 1.0 | 3.0 | 0.00 | 0.00 | 0.00 | 55 | 1016.1 |
| 20260504005613 | 52 | 11 | 1.0 | 3.0 | 0.00 | 0.00 | 0.00 | 53 | 1016.2 |
| 20260504004813 | 52 | 82 | 1.0 | 3.0 | 0.00 | 0.00 | 0.00 | 53 | 1016.1 |
| 20260504004308 | 53 | 100 | 1.0 | 3.0 | 0.00 | 0.00 | 0.00 | 56 | 1015.9 |
| 20260504003804 | 53 | 54 | 1.0 | 3.0 | 0.00 | 0.00 | 0.00 | 50 | 1015.9 |
| 20260504003304 | 53 | 116 | 1.0 | 1.0 | 0.00 | 0.00 | 0.00 | 48 | 1015.9 |
| 20260504002804 | 54 | 82 | 1.0 | 3.0 | 0.00 | 0.00 | 0.00 | 46 | 1015.7 |
| 20260504002304 | 55 | 89 | 1.0 | 3.0 | 0.00 | 0.00 | 0.00 | 49 | 1015.8 |
| 20260504001804 | 55 | 54 | 1.0 | 3.0 | 0.00 | 0.00 | 0.00 | 48 | 1015.8 |
| 20260504001306 | 56 | 110 | 1.0 | 3.0 | 0.00 | 0.00 | 0.00 | 47 | 1015.6 |
| 20260504000805 | 56 | 82 | 0.0 | 3.0 | 0.00 | 0.00 | 0.00 | 46 | 1015.6 |
| 20260504000305 | 57 | 234 | 0.0 | 3.0 | 0.00 | 0.00 | 0.00 | 44 | 1015.5 |
| 20260503235804 | 58 | 54 | 0.0 | 3.0 | 0.00 | 0.00 | 0.00 | 42 | 1015.5 |
| 20260503235304 | 58 | 11 | 1.0 | 3.0 | 0.00 | 0.00 | 0.00 | 41 | 1015.5 |
| 20260503234804 | 59 | 11 | 1.0 | 3.0 | 0.00 | 0.00 | 0.00 | 39 | 1015.5 |
| 20260503234302 | 60 | 54 | 0.0 | 5.0 | 0.00 | 0.00 | 0.00 | 38 | 1015.4 |
| 20260503233802 | 60 | 82 | 1.0 | 5.0 | 0.00 | 0.00 | 0.00 | 34 | 1015.4 |
| 20260503233302 | 61 | 260 | 1.0 | 5.0 | 0.00 | 0.00 | 0.00 | 32 | 1015.4 |
| 20260503232802 | 61 | 143 | 2.0 | 8.0 | 0.00 | 0.00 | 0.00 | 31 | 1015.4 |
| 20260503232301 | 61 | 143 | 2.0 | 8.0 | 0.00 | 0.00 | 0.00 | 30 | 1015.3 |
| 20260503231802 | 62 | 222 | 2.0 | 7.0 | 0.00 | 0.00 | 0.00 | 30 | 1015.2 |
| 20260503231301 | 62 | 143 | 2.0 | 7.0 | 0.00 | 0.00 | 0.00 | 30 | 1015.2 |
| 20260503231057 | 62 | 255 | 2.0 | 8.0 | 0.00 | 0.00 | 0.00 | 28 | 1015.1 |
| 20260503230303 | 62 | 276 | 2.0 | 8.0 | 0.00 | 0.00 | 0.00 | 27 | 1015.1 |
| 20260503225803 | 62 | 203 | 2.0 | 5.0 | 0.00 | 0.00 | 0.00 | 30 | 1015.2 |
| 20260503225304 | 62 | 171 | 2.0 | 7.0 | 0.00 | 0.00 | 0.00 | 27 | 1015.2 |
| 20260503224801 | 62 | 241 | 2.0 | 9.0 | 0.00 | 0.00 | 0.00 | 27 | 1015.2 |
| 20260503224302 | 62 | 294 | 3.0 | 14.0 | 0.00 | 0.00 | 0.00 | 27 | 1015.2 |
| 20260503223802 | 62 | 289 | 2.0 | 14.0 | 0.00 | 0.00 | 0.00 | 28 | 1015.2 |
| 20260503223302 | 62 | 353 | 2.0 | 8.0 | 0.00 | 0.00 | 0.00 | 27 | 1015.3 |
| 20260503222803 | 62 | 11 | 2.0 | 11.0 | 0.00 | 0.00 | 0.00 | 27 | 1015.3 |
| 20260503222304 | 62 | 265 | 2.0 | 11.0 | 0.00 | 0.00 | 0.00 | 27 | 1015.3 |
| 20260503221856 | 62 | 260 | 4.0 | 18.0 | 0.00 | 0.00 | 0.00 | 26 | 1015.4 |
| 20260503221837 | 62 | 21 | 4.0 | 18.0 | 0.00 | 0.00 | 0.00 | 27 | 1015.3 |
| 20260503220802 | 63 | 241 | 4.0 | 14.0 | 0.00 | 0.00 | 0.00 | 28 | 1015.4 |
| 20260503220301 | 63 | 217 | 3.0 | 14.0 | 0.00 | 0.00 | 0.00 | 26 | 1015.3 |
| 20260503215802 | 63 | 234 | 3.0 | 12.0 | 0.00 | 0.00 | 0.00 | 27 | 1015.3 |
| 20260503215300 | 63 | 117 | 3.0 | 12.0 | 0.00 | 0.00 | 0.00 | 26 | 1015.4 |
| 20260503215107 | 63 | 234 | 3.0 | 20.0 | 0.00 | 0.00 | 0.00 | 27 | 1015.3 |
| 20260503214257 | 63 | 210 | 4.0 | 20.0 | 0.00 | 0.00 | 0.00 | 26 | 1015.5 |
| 20260503213757 | 65 | 261 | 4.0 | 14.0 | 0.00 | 0.00 | 0.00 | 28 | 1015.5 |
| 20260503213256 | 64 | 189 | 4.0 | 14.0 | 0.00 | 0.00 | 0.00 | 26 | 1015.5 |
| 20260503212756 | 64 | 253 | 4.0 | 20.0 | 0.00 | 0.00 | 0.00 | 26 | 1015.6 |
| 20260503212300 | 64 | 275 | 4.0 | 20.0 | 0.00 | 0.00 | 0.00 | 26 | 1015.6 |
| 20260503211759 | 65 | 188 | 4.0 | 14.0 | 0.00 | 0.00 | 0.00 | 25 | 1015.6 |
| 20260503211255 | 64 | 187 | 4.0 | 14.0 | 0.00 | 0.00 | 0.00 | 27 | 1015.5 |
| 20260503210754 | 64 | 256 | 4.0 | 14.0 | 0.00 | 0.00 | 0.00 | 26 | 1015.6 |
| 20260503210258 | 64 | 198 | 3.0 | 11.0 | 0.00 | 0.00 | 0.00 | 25 | 1015.6 |
| 20260503205756 | 63 | 205 | 4.0 | 14.0 | 0.00 | 0.00 | 0.00 | 26 | 1015.7 |
| 20260503205253 | 64 | 292 | 5.0 | 19.0 | 0.00 | 0.00 | 0.00 | 27 | 1015.8 |
| 20260503204752 | 63 | 282 | 5.0 | 19.0 | 0.00 | 0.00 | 0.00 | 26 | 1015.8 |
| 20260503204252 | 63 | 213 | 5.0 | 15.0 | 0.00 | 0.00 | 0.00 | 27 | 1015.8 |
| 20260503203752 | 63 | 313 | 5.0 | 15.0 | 0.00 | 0.00 | 0.00 | 26 | 1015.7 |
| 20260503203550 | 64 | 256 | 4.0 | 15.0 | 0.00 | 0.00 | 0.00 | 25 | 1015.7 |
| 20260503202744 | 65 | 179 | 4.0 | 14.0 | 0.00 | 0.00 | 0.00 | 25 | 1015.8 |
| 20260503202240 | 64 | 267 | 5.0 | 18.0 | 0.00 | 0.00 | 0.00 | 27 | 1015.7 |
| 20260503201741 | 63 | 253 | 6.0 | 27.0 | 0.00 | 0.00 | 0.00 | 27 | 1015.9 |
| 20260503201238 | 63 | 267 | 5.0 | 27.0 | 0.00 | 0.00 | 0.00 | 27 | 1016.0 |
| 20260503200737 | 63 | 177 | 4.0 | 18.0 | 0.00 | 0.00 | 0.00 | 30 | 1015.9 |
| 20260503200239 | 63 | 241 | 4.0 | 18.0 | 0.00 | 0.00 | 0.00 | 27 | 1016.1 |
| 20260503200033 | 64 | 187 | 5.0 | 20.0 | 0.00 | 0.00 | 0.00 | 27 | 1016.0 |
| 20260503195237 | 63 | 132 | 5.0 | 20.0 | 0.00 | 0.00 | 0.00 | 28 | 1016.2 |
| 20260503194738 | 63 | 248 | 5.0 | 18.0 | 0.00 | 0.00 | 0.00 | 28 | 1016.1 |
| 20260503194237 | 62 | 229 | 4.0 | 15.0 | 0.00 | 0.00 | 0.00 | 28 | 1016.2 |
| 20260503193740 | 62 | 357 | 3.0 | 11.0 | 0.00 | 0.00 | 0.00 | 29 | 1016.2 |
| 20260503193235 | 62 | 223 | 6.0 | 20.0 | 0.00 | 0.00 | 0.00 | 30 | 1016.4 |
| 20260503193038 | 61 | 196 | 7.0 | 26.0 | 0.00 | 0.00 | 0.00 | 29 | 1016.6 |
| 20260503192233 | 62 | 186 | 5.0 | 26.0 | 0.00 | 0.00 | 0.00 | 29 | 1016.6 |
| 20260503191733 | 61 | 4 | 5.0 | 23.0 | 0.00 | 0.00 | 0.00 | 30 | 1016.6 |
| 20260503191235 | 61 | 208 | 5.0 | 23.0 | 0.00 | 0.00 | 0.00 | 30 | 1016.6 |
| 20260503190736 | 62 | 325 | 4.0 | 12.0 | 0.00 | 0.00 | 0.00 | 30 | 1016.7 |
| 20260503190234 | 62 | 213 | 4.0 | 16.0 | 0.00 | 0.00 | 0.00 | 30 | 1016.8 |
| 20260503185735 | 61 | 301 | 5.0 | 16.0 | 0.00 | 0.00 | 0.00 | 30 | 1016.8 |
| 20260503185536 | 61 | 276 | 5.0 | 15.0 | 0.00 | 0.00 | 0.00 | 30 | 1017.0 |
| 20260503184731 | 60 | 275 | 4.0 | 15.0 | 0.00 | 0.00 | 0.00 | 31 | 1017.0 |
| 20260503184233 | 60 | 246 | 4.0 | 15.0 | 0.00 | 0.00 | 0.00 | 32 | 1017.0 |
| 20260503183731 | 60 | 69 | 3.0 | 15.0 | 0.00 | 0.00 | 0.00 | 31 | 1017.0 |
| 20260503183233 | 60 | 251 | 5.0 | 18.0 | 0.00 | 0.00 | 0.00 | 33 | 1017.2 |
| 20260503182731 | 59 | 236 | 5.0 | 22.0 | 0.00 | 0.00 | 0.00 | 33 | 1017.2 |
| 20260503182231 | 59 | 279 | 5.0 | 22.0 | 0.00 | 0.00 | 0.00 | 32 | 1017.2 |
| 20260503181830 | 59 | 229 | 6.0 | 22.0 | 0.00 | 0.00 | 0.00 | 31 | 1017.2 |
| 20260503181811 | 59 | 299 | 6.0 | 22.0 | 0.00 | 0.00 | 0.00 | 33 | 1017.3 |
| 20260503181032 | 59 | 259 | 6.0 | 18.0 | 0.00 | 0.00 | 0.00 | 32 | 1017.1 |
| 20260503180231 | 58 | 273 | 5.0 | 18.0 | 0.00 | 0.00 | 0.00 | 34 | 1017.2 |
| 20260503175839 | 60 | 253 | 3.0 | 15.0 | 0.00 | 0.00 | 0.00 | 32 | 1017.4 |
| 20260503175816 | 58 | 255 | 4.0 | 16.0 | 0.00 | 0.00 | 0.00 | 33 | 1017.4 |
| 20260503174730 | 60 | 100 | 4.0 | 19.0 | 0.00 | 0.00 | 0.00 | 33 | 1017.4 |
| 20260503174231 | 59 | 305 | 4.0 | 19.0 | 0.00 | 0.00 | 0.00 | 33 | 1017.4 |
| 20260503173730 | 59 | 215 | 5.0 | 27.0 | 0.00 | 0.00 | 0.00 | 34 | 1017.4 |
| 20260503173230 | 57 | 296 | 7.0 | 27.0 | 0.00 | 0.00 | 0.00 | 34 | 1017.6 |
| 20260503172729 | 57 | 239 | 5.0 | 20.0 | 0.00 | 0.00 | 0.00 | 33 | 1017.7 |
| 20260503172231 | 59 | 290 | 4.0 | 16.0 | 0.00 | 0.00 | 0.00 | 32 | 1017.7 |
| 20260503171730 | 57 | 16 | 5.0 | 20.0 | 0.00 | 0.00 | 0.00 | 34 | 1017.6 |
| 20260503171231 | 56 | 271 | 5.0 | 20.0 | 0.00 | 0.00 | 0.00 | 34 | 1017.8 |
| 20260503171123 | 57 | 264 | 5.0 | 16.0 | 0.00 | 0.00 | 0.00 | 33 | 1017.6 |
| 20260503171118 | 56 | 171 | 5.0 | 14.0 | 0.00 | 0.00 | 0.00 | 33 | 1017.7 |
| 20260503150731 | 53 | 329 | 5.0 | 20.0 | 0.00 | 0.00 | 0.00 | 42 | 1018.6 |
| 20260503150530 | 52 | 244 | 5.0 | 20.0 | 0.00 | 0.00 | 0.00 | 39 | 1018.5 |
| 20260503140230 | 49 | 258 | 4.0 | 20.0 | 0.00 | 0.00 | 0.00 | 43 | 1018.6 |
| 20260503131212 | 47 | 256 | 5.0 | 19.0 | 0.00 | 0.00 | 0.00 | 50 | 1018.8 |
| 20260503130706 | 47 | 304 | 5.0 | 18.0 | 0.00 | 0.00 | 0.00 | 50 | 1018.7 |
| 20260503130510 | 46 | 255 | 4.0 | 15.0 | 0.00 | 0.00 | 0.00 | 51 | 1018.7 |
| 20260503120201 | 44 | 203 | 5.0 | 19.0 | 0.00 | 0.00 | 0.00 | 59 | 1018.3 |
| 20260503110701 | 41 | 248 | 3.0 | 11.0 | 0.00 | 0.00 | 0.00 | 73 | 1017.8 |
| 20260503110202 | 40 | 305 | 2.0 | 8.0 | 0.00 | 0.00 | 0.00 | 75 | 1017.8 |
| 20260503100201 | 41 | 326 | 2.0 | 9.0 | 0.00 | 0.00 | 0.00 | 71 | 1016.8 |
| 20260503090159 | 42 | 11 | 2.0 | 7.0 | 0.00 | 0.00 | 0.00 | 70 | 1016.2 |
| 20260503081157 | 42 | 286 | 2.0 | 8.0 | 0.00 | 0.00 | 0.00 | 69 | 1016.0 |
| 20260503080657 | 42 | 255 | 2.0 | 8.0 | 0.00 | 0.00 | 0.00 | 69 | 1015.9 |
| 20260503080453 | 42 | 203 | 3.0 | 9.0 | 0.00 | 0.00 | 0.00 | 69 | 1015.9 |
| 20260503072655 | 42 | 284 | 2.0 | 5.0 | 0.00 | 0.00 | 0.00 | 69 | 1015.6 |
| 20260503072153 | 42 | 275 | 2.0 | 8.0 | 0.00 | 0.00 | 0.00 | 69 | 1015.7 |
| 20260503071653 | 43 | 256 | 2.0 | 8.0 | 0.00 | 0.00 | 0.00 | 68 | 1015.6 |
| 20260503071153 | 43 | 348 | 2.0 | 8.0 | 0.00 | 0.00 | 0.00 | 68 | 1015.6 |
| 20260503070653 | 43 | 234 | 2.0 | 7.0 | 0.00 | 0.00 | 0.00 | 68 | 1015.5 |
| 20260503070154 | 43 | 215 | 2.0 | 7.0 | 0.00 | 0.00 | 0.00 | 67 | 1015.5 |